Location: Philipsburg
(46.3359°N, 113.2993°W)
Time: 08:42:59
(UTC+00:00)

Envisat - Pass Details

Date: 24 January 2022
Orbit: 764 x 765 km, 98.2° (Epoch: 17 May)

Event Time Altitude Azimuth Distance (km) Brightness Sun altitude
Rises 12:13:05 0° 16° (NNE) 3,241 6.5 -29.5°
Reaches altitude 10° 12:15:26 10° 21° (NNE) 2,311 5.7 -29.1°
Maximum altitude 12:20:28 59° 101° (E) 886 3.5 -28.2°
Drops below altitude 10° 12:25:27 10° 180° (S) 2,295 5.4 -27.4°
Sets 12:27:47 0° 184° (S) 3,217 6.2 -27.0°
